Showing default

OPS 4988 (GREB 6), 1271

Orbit data source: Space-Track

OPS 4988 (GREB 6), 1271 is an American payload satellite in LEO that was launched on Tue, 09 Mar 1965 UTC via a THOR SLV-2 AGENA D launch vehicle from the Air Force Western Test Range (AFWTR). Payload-class satellites include a variety of spacecraft equipped with specific instruments for various scientific and technological missions. These include communications satellites like Starlink; space stations such as the ISS; scientific satellites like the Hubble; Earth observation satellites from companies like Planet Labs, Umbra, and HawkEye 360; GPS; miniature CubeSats for education and research; and military/defense satellites.

Loading next visibility...
Identifier
1271, 1965-016A
Orbit
LEO
Country
Flag of USUS
Related business
Manufacturer
NRL
Mission
Spacecraft
Bus & Motor
NRL 24", Unknown motor
Mass
48 kg wet, 48 kg dry
Launch date (UTC)
1965-03-09 (61 years ago)
Launch vehicle
THOR SLV-2 AGENA D
Launch site
Air Force Western Test Range (AFWTR)
Object type
Payload
Rocket body
Debris
Shape & HBR
Unknown
Radar Cross Section
Medium (>0.1 m² and <1 m²)

Expand to show TLE details & history
Last TLE update: 1 day ago

TLE from 1 day ago
0 OPS 4988 (GREB 6)
1 01271U 65016A   26135.24679531  .00000013  00000-0  47229-4 0  9995
2 01271  70.0797 228.3413 0018437 116.2186 273.6421 13.96654483114217
Epoch: 2026-05-15T05:55Z
TLE epoch observation values (Epoch: 2026-05-15T05:55:23.114Z)
Latitude
27.76835°
Longitude
-82.54396°
Altitude
907.389 km
Speed
7.401 km/s
True Right ascension
15h 57m 07s
True Declination
27° 37' 47"
Sunlit
Object was in full shadow at epoch
Visualization orbit readout
Latitude
Unknown
Longitude
Unknown
Altitude
Unknown
Speed
Unknown
Apparent Right ascension
Unknown
Apparent Declination
Unknown
Sunlit
N/A
Visualization observer readout
Local Sidereal Time
19:30:29
Azimuth
Unknown
Elevation
Unknown
Doppler factor
Unknown
Orbital elements
Apogee altitude
916.863 km
Perigee altitude
890.013 km
Semi-major axis
7,281.575 km
Eccentricity
0.00184
Inclination
70.0797°
RAAN
228.3413°
Arg. of periapsis
116.2186°
True anomaly
273.43122°
Mean anomaly
273.6421°
Eccentric anomaly
273.53666°
Mean motion
3.49305 °/min
Orbital period
103.06 mins
BSTAR
0.000047229
Loading maneuver chart data...
Computing Atmospheric mass density...
Loading historical data...
Loading historical data...
Loading historical data...
Loading historical data...
Loading historical data...
Loading historical data...
Loading historical data...

Documentation

Showing up to 5 results
|